Theta_e
354 356 357 357 357 354 353 353 352 349 347 347 346 347 343 338 346 364 373 363 348 344 345 343 345 346 343 344 344 343 345 345 345 345 345 346 348 348 349 348 349 349 349 351 351 352 353 353 354 355 356 356 356 356 356 355 356 355 354 354 353 353 352 351 350 349 349 347 345 343 342 340 338 337
356 357 357 357 357 357 354 352 352 350 350 350 349 350 346 341 345 351 359 363 351 341 344 345 344 343 342 345 346 345 347 348 349 351 352 354 354 355 354 353 353 354 354 354 353 355 356 356 356 357 356 356 356 357 357 356 356 356 356 355 355 353 352 351 350 350 350 349 348 346 345 344 342 341
356 356 357 357 357 357 355 353 353 353 355 354 352 353 353 349 348 346 348 355 350 343 346 347 346 346 347 349 347 346 346 347 349 352 354 356 356 355 355 354 353 352 352 353 353 354 356 356 357 358 357 357 358 358 358 358 357 357 357 355 353 351 351 351 351 350 350 350 349 348 347 346 344 343
356 356 357 358 356 356 357 355 356 357 357 357 355 355 356 354 354 353 351 351 350 349 350 350 350 352 354 353 351 350 349 349 351 353 355 356 355 355 354 353 352 351 352 354 355 356 357 358 358 359 359 359 360 360 359 357 355 353 352 350 348 348 349 350 351 351 351 350 349 348 348 347 346 345
357 356 355 357 356 356 357 357 357 358 357 357 357 356 357 356 356 356 354 352 352 354 355 355 355 356 357 355 352 352 353 352 354 355 355 355 356 356 357 357 356 355 357 357 358 358 359 359 360 360 360 360 361 360 357 352 349 347 347 347 349 350 351 351 350 349 348 348 348 348 347 347 346 345
358 357 355 355 357 356 357 358 358 358 357 357 357 357 358 358 357 357 356 355 354 355 357 357 356 357 358 356 353 354 355 356 357 357 356 357 357 357 358 359 359 358 360 359 360 359 360 360 360 360 361 362 360 356 349 346 346 348 349 350 351 350 347 345 344 343 343 343 344 344 345 345 346 346
358 357 355 354 355 356 357 357 356 357 357 356 357 356 357 359 358 358 357 357 356 357 357 358 358 358 357 355 354 356 358 359 358 358 357 357 357 358 359 359 360 360 360 360 359 360 359 359 360 362 362 360 353 347 345 348 350 351 350 348 346 343 342 340 340 340 340 341 341 342 342 343 343 344
354 356 354 354 356 357 356 355 356 356 356 357 357 356 356 358 359 358 358 358 358 358 358 358 357 357 356 356 357 358 359 360 358 356 356 357 358 359 359 360 361 360 360 360 359 358 359 359 360 359 357 352 346 346 349 352 351 347 344 341 340 340 340 341 342 341 342 341 341 342 342 342 342 342
354 355 353 353 357 359 357 356 355 356 357 357 358 357 356 357 357 356 358 358 358 357 358 357 357 356 357 357 358 359 360 360 357 354 355 358 360 359 360 361 360 358 359 360 359 359 359 357 353 350 348 347 347 349 351 348 344 341 340 339 338 338 339 339 340 340 341 341 341 342 341 342 342 342
355 356 353 352 355 358 358 358 357 358 357 357 358 358 357 357 356 356 358 358 358 357 357 357 357 357 358 359 360 359 360 360 358 356 357 360 361 361 362 361 357 355 358 359 359 359 355 350 347 347 348 348 349 348 345 342 340 339 337 336 335 336 337 337 337 338 339 339 340 340 340 340 340 341
353 354 354 352 352 354 356 356 357 357 358 358 358 358 358 358 357 358 358 359 359 358 357 358 358 359 359 359 361 361 360 360 358 358 361 363 363 362 360 358 355 355 358 359 356 353 349 346 348 348 348 347 344 341 340 340 339 337 334 333 334 335 336 336 336 337 337 337 338 338 338 339 339 339
351 352 352 351 351 351 351 352 352 354 355 356 358 359 358 358 358 357 358 360 360 359 359 359 359 359 360 361 361 361 361 360 358 360 363 363 362 360 355 355 357 358 359 358 352 346 346 348 347 346 343 339 338 338 340 339 338 335 333 333 334 335 336 336 337 337 336 336 337 337 338 338 338 339
350 350 349 349 349 350 349 349 351 353 354 356 357 358 358 358 358 358 359 359 359 360 359 360 360 360 360 361 361 361 361 360 359 362 364 363 360 355 352 354 359 360 360 356 348 345 348 347 344 341 337 335 337 339 340 338 335 334 334 335 336 336 336 336 335 334 333 334 335 337 338 338 338 339
350 349 350 349 349 350 352 351 352 355 356 357 356 356 357 358 358 358 359 360 359 360 360 359 360 360 360 361 360 361 360 358 361 363 363 361 357 353 354 357 360 360 358 352 346 345 347 344 340 336 333 335 339 339 337 335 334 334 335 336 337 336 334 332 329 327 326 328 331 335 339 339 339 340
351 350 351 352 352 353 354 354 354 355 355 356 354 354 355 356 357 357 358 359 359 359 360 359 360 360 361 360 359 358 357 358 362 364 362 359 354 354 358 360 361 361 355 349 347 347 344 342 339 333 332 337 340 338 335 334 334 335 335 336 336 335 331 326 323 322 324 326 329 334 338 340 340 340
354 352 352 352 353 354 353 353 354 354 355 356 356 355 356 356 356 356 356 356 357 357 358 359 359 359 359 358 357 356 354 355 359 360 359 356 352 353 358 361 362 360 353 348 348 347 343 341 337 330 333 339 340 336 333 334 335 335 334 335 334 330 325 322 321 323 325 326 328 332 337 339 340 340
356 355 354 354 354 353 353 354 354 354 355 356 357 357 358 356 356 356 355 355 355 356 357 358 358 357 357 356 355 354 353 353 353 354 354 352 350 352 358 362 361 357 349 347 348 346 343 340 333 329 334 339 337 333 333 334 334 333 334 334 329 324 321 322 323 326 327 327 327 329 333 336 339 340
356 355 356 355 354 354 354 355 355 353 354 355 356 357 357 356 354 355 354 355 355 356 357 357 357 356 355 355 355 355 355 355 352 353 352 351 352 356 359 362 359 352 348 348 347 344 341 336 330 329 335 338 335 332 333 333 333 334 332 328 322 319 321 323 324 327 328 328 328 328 329 331 335 339
356 356 356 356 355 354 353 354 354 354 355 356 356 356 355 354 352 351 351 352 354 355 355 356 356 354 355 357 358 359 360 359 357 355 353 352 356 360 361 362 356 348 348 348 344 341 339 334 329 330 335 337 334 331 333 333 333 331 326 320 317 319 321 322 325 327 329 329 330 330 329 329 331 335
356 356 356 356 355 354 354 352 352 353 356 356 357 356 354 353 352 350 349 350 351 352 352 352 354 355 356 360 360 361 362 363 361 358 355 355 358 359 360 359 352 347 348 347 342 338 337 333 330 331 335 337 333 331 333 333 329 323 317 316 317 318 319 321 324 328 329 329 331 331 331 332 331 331
355 356 356 356 356 355 354 352 352 353 355 356 356 355 354 353 352 350 350 350 351 351 352 354 355 357 359 359 358 358 360 362 363 359 357 357 359 359 359 356 349 346 348 346 340 337 336 334 332 330 334 335 332 331 333 331 323 316 315 316 315 315 317 319 322 326 327 329 331 332 332 334 335 333
355 355 355 355 356 356 355 354 353 353 354 355 355 354 354 354 353 351 349 350 351 352 355 358 359 359 359 358 356 357 360 362 362 360 359 359 359 359 358 354 347 345 345 343 339 336 336 336 333 331 333 335 332 331 333 329 321 317 318 317 315 315 316 317 319 322 325 327 330 331 331 332 336 337
356 356 355 355 355 354 355 355 354 354 353 354 354 354 354 355 353 351 349 350 352 354 357 360 360 360 360 357 357 358 361 363 363 361 361 360 359 359 358 353 349 345 342 341 339 336 335 335 333 330 333 335 334 332 332 328 321 319 319 317 315 315 315 315 317 319 323 326 328 330 330 330 334 338
357 357 356 356 355 355 355 355 355 355 355 354 355 354 355 355 354 351 352 353 355 357 360 361 360 360 360 359 360 361 361 363 363 361 361 360 360 360 358 351 347 344 341 340 338 336 336 335 332 330 332 335 334 333 332 328 322 320 320 317 316 317 316 315 315 316 319 323 326 328 329 328 330 333
358 358 357 356 355 355 356 356 357 358 358 358 357 356 355 355 354 354 355 356 357 358 360 361 361 360 361 361 363 363 362 363 361 360 360 359 359 361 357 350 346 344 341 340 337 335 335 333 330 330 331 332 333 332 331 327 322 320 320 318 317 318 317 316 315 315 317 319 322 325 327 327 327 328
358 358 357 357 355 355 355 356 358 359 359 360 360 359 358 357 356 357 357 358 359 359 360 361 361 361 362 362 362 362 361 361 360 358 356 354 356 359 355 348 345 342 339 338 337 335 333 331 329 329 329 331 333 331 327 325 323 321 319 319 318 317 317 316 315 315 316 317 320 321 323 325 326 325
359 358 358 357 356 355 354 355 355 355 355 356 358 359 360 359 359 360 361 360 361 360 361 362 362 362 362 362 361 361 360 360 358 355 353 352 354 355 350 344 342 339 336 337 337 334 332 330 328 327 328 330 332 330 326 323 322 321 320 319 318 317 317 317 316 315 315 316 318 319 321 322 323 323
359 359 358 357 358 357 356 355 355 354 353 353 354 354 355 356 356 359 360 362 361 362 362 362 362 362 362 361 360 360 360 358 355 351 349 349 348 346 343 340 338 336 335 337 337 333 331 330 328 326 327 328 329 328 325 323 322 320 320 319 318 318 317 316 316 316 315 314 315 317 319 320 320 320
359 359 359 358 358 358 357 357 356 355 355 355 355 355 356 357 356 356 359 361 362 362 363 362 362 362 361 361 361 359 359 357 351 345 342 341 340 339 339 338 337 336 336 336 334 332 332 331 328 325 326 327 327 325 323 323 322 321 319 319 319 318 317 316 316 316 316 315 314 316 318 319 318 318
359 360 359 359 359 358 358 358 357 357 357 357 358 358 360 360 359 357 357 359 361 362 362 362 361 361 361 361 360 358 357 356 349 343 341 339 337 337 337 336 335 335 335 334 333 332 332 331 328 326 325 325 326 324 322 322 322 321 319 318 318 318 318 317 317 317 317 316 315 315 317 318 317 317
358 359 359 359 359 359 359 358 359 359 360 360 361 361 361 362 362 360 358 359 360 361 361 361 361 361 360 360 357 355 356 354 348 343 340 338 337 337 336 336 335 334 333 334 334 333 332 331 329 327 325 325 325 324 322 322 322 321 319 318 317 317 318 318 318 317 317 317 316 315 315 317 317 317
357 358 359 358 359 359 360 360 360 360 361 361 362 362 362 362 362 361 359 358 358 360 360 360 360 359 358 357 355 355 355 351 346 342 339 335 334 334 335 335 334 332 332 333 334 333 332 331 329 327 325 324 324 324 323 323 322 321 320 318 317 317 317 318 318 318 318 318 317 315 315 316 317 317
356 355 357 358 359 359 360 360 360 361 361 361 361 361 361 361 361 360 358 357 358 359 359 358 358 357 355 354 354 355 354 348 343 340 336 331 328 331 335 336 333 331 331 333 333 333 332 330 329 328 325 324 325 324 323 323 323 322 320 319 317 317 317 317 318 318 318 318 318 315 314 315 316 317
352 353 355 356 358 359 359 359 359 359 359 360 360 359 360 359 360 359 358 359 359 359 358 358 357 355 354 354 354 354 350 344 340 338 336 330 326 329 335 336 333 331 330 331 332 333 332 330 329 327 325 324 325 325 324 324 323 323 321 320 318 317 317 317 317 317 318 318 318 316 315 314 315 316
350 352 355 355 356 358 358 358 359 359 359 358 358 358 358 358 359 359 358 359 359 357 358 357 356 355 355 354 350 347 343 340 339 338 335 331 329 331 334 335 332 330 330 331 332 332 333 332 329 327 325 324 324 325 325 324 324 324 322 321 319 317 317 317 317 317 317 317 317 317 315 314 314 315
350 351 353 354 356 357 357 357 358 358 358 358 358 358 358 358 358 358 359 359 359 357 358 357 356 356 354 349 344 340 338 338 339 337 335 333 333 333 334 333 332 330 330 330 330 330 331 333 331 328 325 323 325 327 326 323 323 324 323 321 320 318 317 317 317 317 317 317 317 316 315 314 313 314
349 351 352 354 355 356 357 357 357 357 357 357 358 358 358 358 358 358 358 358 358 358 357 356 356 353 348 342 338 338 338 338 339 337 335 334 334 334 335 333 332 330 329 328 328 328 329 332 332 330 325 325 330 335 330 323 323 324 324 322 321 320 318 317 317 317 317 316 316 316 315 314 313 313
350 350 351 352 354 355 355 355 353 354 355 356 357 358 358 358 358 358 357 357 357 356 356 355 353 349 343 338 337 337 337 337 338 337 336 335 334 334 335 334 332 330 328 327 328 328 329 331 332 329 325 326 332 336 331 325 323 324 324 323 322 320 319 318 318 317 317 316 316 316 316 315 314 313
350 351 351 351 351 352 353 353 352 352 353 355 357 358 358 358 358 357 357 356 355 355 355 352 349 345 341 338 338 337 335 334 335 336 335 335 335 334 334 333 332 330 327 327 328 328 328 329 330 328 326 325 328 330 327 324 324 324 324 323 322 321 319 319 319 318 317 316 316 316 316 315 315 313
350 351 352 351 349 349 351 353 354 354 354 355 357 357 358 358 358 357 356 355 355 354 352 348 344 342 341 340 338 337 334 333 333 334 333 333 334 334 333 333 332 330 327 328 328 328 327 328 328 327 327 327 327 326 325 325 325 326 325 325 323 322 321 319 319 319 318 317 317 316 316 316 315 314
350 350 352 352 352 352 353 354 354 354 355 356 357 357 357 357 357 357 356 354 352 349 346 344 342 341 339 337 335 334 333 333 332 332 331 332 333 332 332 333 332 329 328 328 328 328 327 327 327 326 326 326 327 326 325 325 325 325 325 324 323 323 321 320 319 318 318 318 317 316 316 316 315 314
350 351 351 352 354 355 355 354 354 355 356 357 357 357 356 356 353 351 348 346 344 342 342 341 341 338 334 332 331 331 331 332 332 331 331 332 331 330 331 332 330 328 328 328 327 327 327 326 326 326 325 325 326 326 325 324 324 324 324 324 323 323 322 320 319 318 318 318 316 316 315 315 315 314
350 352 354 354 355 356 355 354 354 355 356 356 355 355 353 350 345 341 340 340 340 341 340 339 336 333 331 331 332 331 331 330 330 330 330 330 330 329 330 330 328 327 327 327 325 325 325 324 324 325 324 323 325 325 325 324 324 323 323 323 323 322 322 320 320 319 318 317 316 316 315 315 315 314
352 353 353 354 354 355 354 354 354 354 353 352 351 349 347 344 340 338 338 339 339 337 335 334 333 332 333 332 332 330 330 329 329 329 329 329 329 328 328 328 326 325 324 324 323 323 323 323 323 323 322 322 322 323 323 322 321 321 321 322 322 322 322 321 320 320 319 318 317 316 315 315 315 314
348 349 348 349 349 350 350 349 349 349 348 348 347 345 342 340 338 337 336 336 335 333 332 332 333 333 332 331 331 331 330 329 329 329 328 328 328 327 326 325 324 323 322 322 322 321 322 321 320 320 320 320 319 319 319 319 319 319 320 320 321 321 321 321 321 320 319 318 317 316 315 315 314 314
Wind_Speed
14 13 12 11 10 9 8 6 3 2 3 5 6 5 4 4 3 1 2 4 3 2 3 2 3 6 6 5 7 9 12 13 16 18 20 21 22 22 23 24 24 24 24 25 25 24 24 24 24 23 24 24 25 26 27 26 26 26 27 27 28 28 28 28 29 30 31 32 33 33 33 34 33 33
16 15 13 12 11 10 9 8 6 5 5 5 5 4 4 4 4 4 3 3 4 3 3 2 2 6 8 6 6 8 10 12 14 16 18 18 18 19 19 20 21 22 22 22 22 21 22 22 22 23 24 26 27 27 27 27 27 28 28 29 30 30 29 29 28 28 28 30 31 32 32 32 33 33
17 17 16 14 13 11 10 8 7 6 6 6 6 5 4 4 4 5 4 2 3 4 4 6 8 10 10 10 11 11 12 13 14 15 16 17 17 18 19 19 20 20 19 19 20 20 21 21 23 24 25 25 26 27 27 28 28 27 27 27 26 26 26 26 26 26 26 27 28 29 30 31 31 31
17 18 18 17 14 11 10 9 8 7 6 6 7 7 7 5 5 6 6 6 7 10 10 11 11 11 12 14 14 14 14 14 15 16 17 17 17 17 17 17 15 15 15 16 17 19 20 22 23 25 25 25 26 26 26 26 25 24 24 23 23 23 24 25 26 26 26 26 25 25 25 26 28 29
18 18 19 19 16 12 11 11 10 9 8 7 7 8 9 9 8 8 9 10 11 14 14 13 13 14 15 15 15 15 16 16 16 16 15 15 15 15 14 13 12 12 14 16 18 20 21 23 24 24 24 23 23 24 24 24 22 22 23 23 24 25 26 26 26 25 25 24 24 23 22 22 23 24
19 19 20 20 19 16 14 14 13 12 12 11 11 10 11 12 12 11 12 11 11 14 17 17 17 16 15 15 15 15 17 17 17 16 14 13 13 13 12 13 13 14 15 17 19 21 22 23 23 22 20 20 22 23 22 21 22 23 24 24 25 25 25 24 24 23 21 21 20 20 20 20 20 19
22 20 20 20 20 18 18 18 17 17 16 15 15 14 13 14 14 14 14 14 13 15 18 18 18 17 15 15 16 17 17 17 17 16 16 15 14 12 13 14 15 16 17 19 21 21 21 20 19 18 19 20 20 20 21 21 22 23 24 24 24 22 22 21 20 20 19 18 18 18 18 18 18 17
24 23 22 21 20 18 19 20 19 19 18 17 17 16 15 15 14 14 15 16 16 17 18 19 19 17 15 16 18 19 18 17 17 18 19 18 16 14 13 14 15 17 18 19 20 19 18 18 18 18 19 18 17 19 20 21 22 22 22 22 21 20 19 18 18 18 18 18 17 17 17 17 17 17
24 23 23 22 21 19 20 20 21 20 19 19 18 17 17 16 16 15 14 15 16 18 19 20 20 17 16 17 19 19 17 17 19 20 19 18 17 15 12 11 14 18 19 19 19 17 17 18 18 17 15 15 16 18 19 19 20 21 21 21 21 21 20 19 18 18 18 18 18 18 18 17 17 17
25 24 23 23 23 23 22 22 22 21 20 20 19 18 17 16 16 16 16 15 15 17 18 20 20 19 18 19 19 18 16 17 21 22 19 16 14 11 8 10 16 20 19 18 17 18 19 18 15 13 13 14 16 16 17 18 19 20 22 23 23 22 21 20 19 18 18 18 18 18 19 19 18 18
26 25 24 24 23 24 25 24 24 23 22 21 20 20 19 18 17 17 17 17 17 18 18 20 21 21 20 19 18 17 16 17 20 20 17 12 8 7 9 14 18 20 18 17 18 18 17 14 12 12 13 14 15 16 17 18 19 22 24 24 24 24 23 22 21 20 18 17 17 18 18 19 18 18
29 28 27 26 25 24 24 25 25 24 23 22 22 21 20 19 19 19 19 19 19 19 20 21 22 21 20 19 17 16 16 17 18 15 10 7 7 11 16 17 17 17 17 18 18 16 14 12 11 12 13 15 16 17 17 19 21 24 25 25 25 24 23 23 22 21 20 18 17 17 17 17 18 17
31 30 29 28 27 26 24 24 24 23 23 22 23 23 22 21 21 21 21 21 21 20 20 21 22 20 20 20 17 15 15 15 16 10 5 6 11 16 20 19 15 14 16 18 16 14 13 12 12 13 15 17 16 16 18 20 23 23 23 24 24 23 23 24 24 24 23 21 18 16 16 16 16 16
32 31 30 29 28 27 26 25 24 24 24 24 24 24 23 23 23 23 23 23 23 21 20 21 20 18 20 21 17 15 14 13 12 8 6 9 14 16 18 18 15 14 17 18 15 13 11 11 13 16 17 16 15 17 20 22 22 21 21 22 22 22 24 27 28 28 25 22 19 17 16 16 16 15
32 32 31 31 30 29 28 27 26 25 25 25 25 25 25 25 25 25 25 25 24 22 21 21 19 17 20 22 18 16 16 12 10 9 8 12 15 14 13 13 14 16 18 16 14 11 9 11 15 17 17 15 15 18 20 20 19 19 19 20 21 24 28 31 30 27 23 20 18 16 15 15 15 14
33 32 32 32 31 31 30 29 27 26 25 25 25 26 26 27 27 27 27 27 26 25 23 22 20 19 20 22 21 20 18 14 11 12 13 14 15 14 12 11 13 16 15 12 12 10 7 11 16 16 14 14 15 17 18 18 18 19 19 20 23 28 31 30 28 25 22 19 16 16 15 14 14 14
33 33 32 32 32 31 30 29 28 27 26 26 26 27 28 29 30 30 30 29 29 28 26 24 24 22 22 23 24 23 21 17 14 14 16 17 16 15 13 13 14 14 10 8 10 7 6 12 16 14 13 13 14 17 17 17 18 19 19 22 26 29 29 27 25 23 22 20 17 16 15 13 12 12
34 34 33 33 33 32 31 30 29 28 28 27 28 29 29 29 30 30 31 32 31 31 30 28 28 26 25 26 25 23 22 21 18 17 17 17 16 14 13 13 14 11 6 7 8 4 6 12 15 13 12 11 14 16 16 17 18 18 21 24 27 28 27 26 24 22 22 22 20 19 17 15 13 11
35 35 34 34 34 33 32 32 31 30 29 28 29 30 30 30 30 30 30 31 31 31 31 30 30 28 25 24 22 20 20 21 20 18 16 14 13 13 14 15 12 7 4 7 6 3 5 11 14 13 10 9 13 15 15 17 19 20 23 25 27 28 27 26 25 22 22 23 22 22 21 18 14 11
36 35 35 35 35 35 34 33 32 31 30 30 30 30 30 29 29 29 28 28 28 29 29 29 28 25 21 19 18 18 19 20 19 17 14 13 14 14 14 14 10 4 4 6 5 3 6 10 13 12 9 8 13 16 15 17 20 22 25 27 29 30 29 28 26 22 22 23 22 23 23 22 17 12
37 37 36 36 36 36 36 35 33 31 31 31 32 31 30 28 28 29 28 26 25 25 25 24 23 21 19 18 18 19 19 20 19 15 13 15 15 13 11 10 7 5 5 5 4 4 6 9 11 10 7 7 12 15 14 16 21 24 28 31 32 31 30 29 27 24 22 22 22 23 24 24 22 17
38 38 38 37 36 36 36 36 34 32 31 32 33 33 32 30 30 31 30 27 24 23 21 21 20 20 20 19 19 19 19 21 21 17 15 16 14 12 11 10 8 6 5 4 4 4 5 8 10 9 5 5 10 14 12 13 20 24 28 32 34 33 32 31 29 26 23 22 22 23 25 25 23 20
37 38 39 37 37 37 37 36 34 32 32 32 33 33 32 31 32 33 31 28 26 24 22 21 20 20 19 18 19 19 18 20 20 17 16 16 16 15 14 11 8 4 3 2 3 3 4 7 9 8 5 2 5 10 9 12 20 23 26 31 34 34 34 33 31 29 25 22 22 22 25 26 24 20
35 36 37 38 38 38 37 36 35 34 33 33 33 33 32 32 33 33 30 28 26 24 22 21 20 19 18 17 17 17 16 16 15 14 14 17 18 17 15 12 10 5 3 1 2 2 4 6 7 7 6 2 1 5 6 10 19 23 24 29 33 34 36 36 34 32 28 23 21 21 22 25 25 23
35 35 36 38 39 38 37 35 33 32 32 33 34 34 34 34 33 31 29 27 25 23 22 20 19 18 17 15 14 14 13 12 12 13 15 16 17 17 15 13 11 8 4 3 1 3 5 5 5 5 6 3 2 5 5 7 16 21 21 24 29 31 34 36 35 35 33 28 23 20 21 22 24 24
36 36 37 38 38 38 38 36 33 31 29 29 30 32 33 33 32 31 30 28 25 23 21 19 18 17 16 15 14 13 12 12 13 13 13 14 15 15 13 11 10 8 5 5 4 4 6 5 5 4 4 2 2 5 6 8 14 18 17 18 23 27 30 32 35 35 35 33 28 23 20 20 21 22
37 38 38 38 37 36 36 36 36 35 32 30 29 29 29 30 29 29 29 27 25 24 22 20 19 18 17 16 15 15 14 14 13 12 11 12 12 11 10 10 9 7 6 7 6 6 6 5 4 3 3 2 2 3 6 8 11 16 16 14 17 23 26 29 32 34 35 35 33 28 24 21 21 21
37 37 38 37 36 35 34 34 33 32 31 31 30 29 28 28 29 29 29 27 25 23 22 22 21 20 20 19 18 17 16 14 12 10 10 10 10 10 10 9 8 7 8 9 9 7 5 4 5 4 3 3 3 4 4 6 8 13 16 14 13 18 23 26 30 33 35 35 35 33 30 27 26 25
39 39 38 36 35 34 32 30 28 27 26 25 25 25 25 27 29 30 29 27 25 24 24 24 24 25 25 24 22 19 17 15 12 11 11 12 12 12 11 10 8 9 11 11 11 9 4 3 5 6 5 4 4 5 5 4 6 9 14 16 14 14 20 26 28 31 35 35 35 34 31 28 27 28
40 38 36 34 32 30 28 26 25 24 23 23 23 24 25 27 28 28 28 27 26 26 27 27 28 28 27 25 22 19 16 15 15 15 15 14 14 14 13 11 11 11 12 11 11 9 3 1 4 6 6 5 4 4 5 4 5 7 10 14 14 13 19 26 27 29 33 35 34 32 30 28 26 26
40 36 33 31 29 26 24 24 24 23 22 22 23 25 26 27 28 28 28 29 29 29 30 30 29 28 26 24 21 18 15 14 17 18 16 15 15 14 13 14 14 12 12 12 11 8 2 1 2 3 4 4 4 2 3 2 3 5 6 9 12 13 19 25 27 28 31 33 34 32 30 29 28 26
39 35 30 27 24 22 22 22 22 21 20 20 20 21 22 24 26 28 28 28 29 31 31 29 27 25 23 21 19 16 14 17 20 19 17 15 14 14 14 16 16 14 13 12 11 8 5 3 2 1 2 3 5 3 1 1 2 3 3 5 8 11 15 21 25 27 30 33 34 32 30 30 30 28
37 32 27 23 22 21 21 21 20 20 19 19 18 19 19 19 22 25 27 29 31 32 31 28 25 22 19 17 16 16 18 20 21 20 16 13 13 14 15 16 15 14 12 11 11 10 9 7 5 2 1 2 3 3 3 3 3 3 2 3 5 8 11 15 20 24 28 31 33 32 29 30 30 29
33 29 26 25 25 24 24 24 23 23 22 22 21 22 21 21 21 22 25 29 31 31 29 26 22 20 18 17 17 19 21 22 21 19 15 12 12 15 16 15 14 12 10 10 10 11 11 10 8 5 4 4 5 6 6 5 5 4 3 3 3 5 8 12 15 20 23 27 29 30 30 30 30 29
31 28 28 28 28 28 27 27 26 25 25 24 24 23 23 23 23 23 25 28 29 28 26 23 21 20 19 18 19 22 23 22 21 18 13 11 12 15 15 15 15 12 9 10 10 9 10 13 12 8 7 7 7 7 8 7 7 7 6 5 4 3 6 9 12 16 19 22 25 27 29 30 30 30
32 31 30 29 29 30 29 29 29 28 26 25 25 24 23 23 24 25 27 27 28 27 26 24 22 21 19 19 20 21 21 20 20 18 14 13 15 16 15 14 15 12 10 10 10 7 8 13 15 12 10 8 5 5 6 6 7 8 8 7 6 4 4 6 8 12 15 18 21 22 23 25 27 28
31 31 31 31 31 32 31 29 26 25 24 25 25 24 24 24 25 26 27 27 26 27 26 24 22 20 19 19 19 18 17 18 19 19 17 16 17 16 14 14 15 13 9 9 9 8 7 11 16 16 12 7 4 4 5 6 8 9 10 9 8 6 5 4 5 9 11 14 16 17 18 19 22 23
32 32 32 32 30 28 26 22 21 21 23 25 26 26 25 25 25 26 26 26 26 26 25 23 22 22 22 22 19 17 16 16 18 20 20 19 18 17 15 14 15 14 10 9 9 8 7 10 16 18 14 9 6 4 5 5 8 9 10 10 9 8 6 5 5 7 9 10 12 13 14 15 17 19
32 32 31 29 25 24 22 21 24 27 27 26 27 27 26 26 26 26 27 27 27 27 25 24 23 23 23 22 19 16 15 15 18 22 22 20 19 18 16 15 17 15 12 10 9 9 8 11 15 16 15 12 9 7 7 7 7 8 9 10 11 10 9 7 7 7 8 8 9 11 12 13 14 16
31 30 28 25 25 28 28 26 26 28 28 27 28 29 28 28 28 28 28 28 28 27 26 24 23 22 20 18 17 16 15 15 18 20 20 19 20 18 16 17 19 18 14 11 9 9 9 10 11 12 12 11 10 9 9 9 8 9 10 12 12 11 11 9 8 7 7 8 8 9 11 12 13 15
29 27 25 23 24 28 28 27 27 28 27 27 29 29 28 28 30 31 31 30 29 27 25 23 20 17 16 16 17 16 15 15 16 17 18 18 18 16 15 18 20 18 13 9 8 7 7 6 6 6 6 6 7 8 8 7 8 10 10 11 13 13 12 11 9 7 6 7 7 7 8 9 10 12
25 24 22 21 22 23 23 25 27 28 27 27 28 27 27 27 28 28 27 25 24 23 21 19 16 14 14 16 17 16 15 15 16 16 16 17 15 14 16 19 18 13 10 9 7 6 5 4 4 4 4 4 5 7 8 9 10 11 10 10 11 13 13 13 11 9 8 7 6 4 4 4 5 7
21 21 20 19 19 20 21 22 25 26 26 26 25 24 24 23 21 19 19 19 19 18 17 16 14 13 13 15 16 15 14 15 15 14 13 13 14 15 16 16 13 10 9 8 7 5 5 4 4 4 3 3 3 5 7 8 9 10 9 9 10 11 13 14 13 12 10 9 7 5 3 2 2 3
21 21 20 19 18 18 18 19 21 22 22 21 20 18 18 17 17 16 18 19 18 17 16 15 14 12 13 16 17 16 15 15 15 14 13 13 14 15 15 14 13 11 9 8 6 5 5 4 3 3 3 3 2 4 5 7 8 9 9 9 9 10 12 14 15 15 14 12 9 8 6 4 3 3
22 21 20 19 18 17 16 16 16 17 16 16 16 16 16 17 18 18 17 17 16 17 16 15 13 12 13 16 17 16 15 15 16 16 16 15 15 15 15 13 11 9 7 5 4 4 3 3 4 4 4 4 4 5 6 7 8 9 9 10 10 10 11 13 15 17 17 15 12 11 9 7 5 4
Wind_Direction
218 227 236 245 253 250 242 249 255 215 212 218 225 242 245 215 194 176 311 289 254 245 300 338 31 25 7 323 289 279 285 297 301 301 302 305 308 310 309 308 307 307 307 309 310 311 312 314 315 316 317 318 319 320 320 319 318 317 316 314 312 309 307 305 303 300 298 294 290 287 283 279 276 274
218 226 234 240 244 246 246 244 237 225 218 226 237 247 263 257 218 185 200 274 268 267 312 349 348 354 359 347 320 303 300 305 306 307 311 313 314 313 311 309 307 307 309 312 315 316 318 319 320 321 322 324 325 328 329 330 329 329 328 326 324 320 316 312 309 306 303 300 295 291 288 283 278 274
221 225 230 236 239 244 246 237 230 233 235 244 249 247 262 276 253 219 198 219 276 275 295 313 322 336 344 339 330 322 319 317 315 315 316 316 316 315 314 313 312 314 317 320 323 325 326 326 327 330 332 334 336 337 337 336 335 335 334 333 333 332 330 326 323 318 314 309 303 297 292 288 283 278
226 227 230 233 237 242 242 234 232 240 245 248 248 251 261 266 257 244 218 219 265 286 299 310 323 337 336 331 330 328 329 330 326 321 318 317 317 318 320 322 324 326 328 330 332 332 332 333 334 337 339 341 341 341 338 336 335 335 338 340 341 340 338 336 333 330 326 322 316 309 301 294 288 283
230 232 230 231 233 238 243 242 239 242 248 253 255 254 257 257 254 248 233 233 263 290 304 313 321 326 324 321 325 327 328 332 332 326 323 322 321 323 326 327 328 331 330 331 333 334 335 337 339 341 343 344 343 339 337 337 341 344 346 345 342 339 338 337 336 334 332 330 327 323 316 307 297 289
231 235 233 231 231 235 241 244 242 244 247 252 256 255 255 257 258 256 250 244 253 279 296 305 308 312 313 314 319 325 326 329 330 326 325 324 321 323 323 319 321 328 329 331 333 335 338 340 343 345 346 343 340 340 344 350 352 350 345 341 338 337 336 335 334 331 329 328 326 325 323 319 312 302
229 233 234 232 231 234 240 243 243 244 246 251 255 256 256 257 259 261 262 258 254 267 285 295 298 301 306 310 315 321 323 325 325 322 322 323 319 316 315 314 318 325 330 333 335 338 341 344 347 346 342 340 344 352 358 357 351 346 343 342 341 341 340 338 336 334 330 326 321 318 316 315 315 311
229 233 235 231 229 235 241 245 247 247 247 250 253 256 258 258 262 266 267 268 266 266 274 284 289 295 301 307 312 317 320 321 322 322 322 323 319 313 313 313 316 326 334 336 337 340 343 344 344 340 340 348 359 4 0 353 349 349 350 351 352 352 353 352 350 346 343 340 334 328 322 316 312 310
230 234 237 234 231 235 240 244 248 249 249 250 252 254 257 260 265 270 271 272 271 267 270 278 287 293 297 301 307 314 317 319 322 324 324 323 320 318 314 310 319 331 336 337 339 341 341 341 343 346 354 5 10 5 358 354 355 358 360 2 4 4 3 1 358 354 351 348 346 343 341 337 330 322
234 236 238 238 236 236 238 241 245 248 251 252 252 252 255 260 266 270 272 272 270 268 270 277 285 289 293 297 303 311 315 317 319 321 322 322 322 323 320 319 328 334 337 340 342 341 341 347 355 4 11 14 12 7 2 2 6 7 9 11 11 11 10 8 5 1 356 352 349 346 346 347 347 343
236 239 240 242 241 240 240 241 244 248 251 252 252 253 256 260 263 268 271 271 270 269 272 276 280 285 291 295 299 306 312 315 316 317 319 324 333 334 328 330 333 334 338 343 345 345 349 357 7 14 18 17 13 8 7 11 15 13 13 15 15 14 12 10 7 5 2 358 353 348 346 345 347 350
236 240 244 246 247 246 244 244 245 247 250 252 253 255 258 260 261 264 267 269 270 270 272 275 278 283 288 290 294 302 309 314 316 316 316 323 334 331 327 331 335 336 341 344 346 354 0 4 14 21 18 13 10 12 17 19 16 13 14 14 12 10 9 6 5 3 1 359 356 351 347 344 344 347
236 239 243 246 249 249 250 249 248 248 250 252 254 256 257 258 259 262 263 265 267 267 268 272 276 281 285 288 294 300 307 312 309 301 289 306 324 326 324 328 335 340 343 342 350 7 8 8 22 20 10 11 19 26 26 19 13 13 13 10 6 4 2 359 355 352 351 352 352 351 349 346 345 346
235 238 241 244 248 250 252 253 252 252 253 254 255 256 256 256 257 258 259 261 262 262 263 268 273 277 281 287 294 297 303 307 293 271 271 304 317 321 322 325 334 345 345 342 354 15 13 11 18 13 10 23 36 34 25 17 15 15 12 7 2 359 355 350 346 345 344 344 346 347 349 348 348 347
235 236 239 243 246 249 252 253 254 254 254 255 255 254 254 255 256 255 256 258 260 260 260 265 269 271 277 287 294 294 297 295 272 259 277 300 308 315 317 315 322 339 344 342 353 13 15 9 9 8 18 38 44 31 20 15 17 16 8 3 359 354 349 346 345 345 344 344 344 345 346 346 348 349
236 237 238 241 244 247 250 253 255 255 255 255 255 256 256 256 256 257 257 258 259 260 261 264 267 269 276 285 292 293 292 284 268 265 276 289 298 305 302 291 306 332 341 338 349 7 13 3 3 10 31 48 39 23 16 16 16 11 4 1 356 350 347 347 349 351 351 349 345 343 344 343 344 347
236 237 239 240 243 246 248 250 252 255 256 256 256 259 261 260 258 258 258 259 260 261 263 265 268 272 278 285 293 297 294 286 275 270 276 285 294 299 294 290 309 329 337 339 348 1 6 2 5 19 46 53 31 18 20 19 13 7 1 356 353 352 353 357 359 1 2 1 354 346 341 338 340 344
237 239 239 241 243 246 247 247 249 251 254 255 257 260 263 262 260 258 257 258 258 259 260 263 268 275 281 286 293 298 294 288 283 279 283 291 297 297 292 294 311 325 332 342 347 353 4 7 13 29 55 53 26 23 28 21 12 7 358 355 357 1 5 7 8 9 11 11 8 360 349 338 332 335
240 241 241 242 244 247 248 249 249 250 252 254 257 261 263 263 262 260 259 259 258 259 260 263 269 276 283 286 289 290 289 289 289 288 290 293 292 289 287 293 307 316 320 334 345 6 15 14 19 34 62 57 26 27 32 21 13 6 359 2 11 14 13 14 14 15 15 15 15 13 6 355 340 325
242 243 243 243 245 247 249 251 251 251 251 252 256 260 262 264 265 265 264 264 263 263 264 265 270 274 277 278 279 281 282 286 290 292 290 284 277 275 280 290 296 297 304 319 335 25 37 26 22 34 72 67 31 33 35 22 15 12 13 18 22 20 19 20 18 18 18 19 20 19 17 13 2 341
242 244 244 244 246 247 249 252 253 252 251 251 253 257 260 263 266 268 269 269 268 268 267 266 266 267 266 268 274 277 277 279 283 281 273 273 271 266 270 276 274 276 290 304 329 22 50 38 23 32 77 78 40 38 37 22 19 23 25 27 25 23 23 23 21 20 19 22 25 23 21 20 15 8
242 244 245 246 246 247 250 252 253 252 251 250 251 254 257 260 263 266 268 270 270 269 265 261 259 258 260 266 274 277 275 274 274 267 262 267 265 257 260 257 257 277 276 277 329 21 60 43 25 30 73 87 44 39 36 22 21 25 26 27 27 26 25 24 24 22 19 22 27 26 24 23 19 20
241 243 245 246 246 248 251 252 252 252 252 250 251 252 253 255 259 262 265 267 268 266 262 258 254 254 261 271 275 274 270 268 267 261 257 259 256 256 260 251 246 262 233 238 344 34 72 43 28 29 43 91 40 33 31 21 21 23 24 26 29 29 28 27 27 25 22 21 24 25 26 26 24 24
240 241 243 244 245 247 250 251 251 251 250 250 252 251 248 249 255 259 261 262 263 263 259 256 256 259 267 272 269 265 261 257 253 246 248 255 256 259 261 245 232 228 196 192 6 86 98 52 37 34 37 63 21 17 24 20 19 21 24 27 29 29 29 28 28 28 26 23 21 23 25 28 28 26
238 239 241 242 243 244 246 247 248 248 249 249 251 250 249 251 255 258 260 261 262 261 258 256 258 261 262 260 255 254 251 242 238 238 245 255 257 257 255 240 227 229 220 201 167 132 114 71 46 40 42 50 15 15 26 23 20 22 26 29 28 27 27 27 27 28 28 26 24 22 22 26 30 29
236 239 241 244 245 245 245 245 246 247 248 248 249 250 251 253 255 256 258 260 260 258 255 254 253 252 250 249 247 245 238 233 236 241 249 259 260 252 243 232 229 237 222 188 174 146 124 91 48 39 52 58 30 29 31 23 20 23 27 29 27 25 26 26 26 27 27 27 25 23 21 23 25 27
236 239 242 246 249 249 248 248 248 249 250 250 250 250 251 252 254 255 256 256 255 253 251 248 246 245 243 242 243 242 241 239 241 248 256 261 254 233 216 216 230 236 204 178 172 155 135 106 59 49 64 77 98 68 40 25 16 16 19 24 26 25 25 26 27 28 27 26 25 23 21 21 20 21
237 241 244 248 250 251 252 253 254 254 255 255 255 256 256 256 256 254 253 252 249 246 243 241 241 243 244 246 248 249 249 248 245 244 242 234 218 204 201 210 219 206 184 177 174 161 139 96 77 87 86 79 96 94 60 33 13 8 10 14 19 22 23 24 27 29 28 27 25 23 21 20 19 16
240 243 247 249 251 252 253 255 256 257 258 259 260 260 259 258 256 252 249 248 243 239 238 239 242 247 252 256 259 259 259 257 244 223 209 199 195 198 202 203 198 185 177 174 170 162 144 81 93 100 90 83 81 76 71 48 14 7 9 8 7 13 21 25 27 28 28 28 27 25 23 20 18 16
241 244 246 247 249 251 252 254 255 256 258 260 260 259 258 257 256 251 245 241 237 236 239 242 247 253 258 262 266 268 268 256 231 211 201 196 195 199 197 186 178 172 168 169 168 161 146 81 109 94 80 96 101 70 70 56 18 13 14 11 9 12 20 25 27 26 27 27 27 27 26 21 19 19
238 239 242 245 247 249 249 250 251 252 253 255 257 258 258 257 256 251 245 240 237 238 241 244 248 253 259 263 266 269 261 235 214 208 207 201 195 193 187 174 163 155 155 164 169 168 175 204 136 78 69 121 150 111 72 51 10 12 14 18 22 19 17 21 24 25 25 26 25 26 25 22 20 22
234 236 239 241 240 239 238 237 237 238 240 243 247 253 258 258 255 250 243 237 237 239 241 244 247 251 255 258 258 255 239 217 207 205 204 197 188 184 178 169 158 149 150 161 170 180 197 207 189 82 64 130 163 159 141 245 320 351 358 15 29 28 22 22 22 22 22 24 23 24 24 22 21 22
230 230 231 228 224 222 220 219 220 222 226 232 237 243 252 258 256 249 240 234 236 239 240 240 242 245 247 247 243 234 222 211 204 198 193 186 180 178 175 168 160 156 155 162 174 189 199 203 204 207 191 170 184 199 228 254 268 286 311 352 23 31 29 28 26 23 22 22 22 21 22 23 22 21
224 221 221 218 215 215 215 215 219 223 227 232 237 241 246 251 253 250 244 240 240 239 237 235 238 240 239 233 226 220 212 203 196 191 188 183 178 177 174 168 163 164 167 173 183 196 203 203 205 214 224 220 219 227 240 259 268 262 266 303 354 21 26 30 32 29 26 25 23 19 19 21 21 20
217 214 216 216 217 218 219 219 222 225 227 230 235 239 242 245 247 248 246 243 239 235 231 231 235 237 234 226 216 208 201 196 190 186 183 184 181 178 174 170 167 168 178 187 190 198 210 211 211 216 225 231 238 242 242 249 256 253 253 272 300 350 18 26 32 32 30 29 26 22 20 20 17 15
216 214 214 215 217 218 219 222 223 223 225 228 233 236 238 241 243 244 243 241 236 230 227 229 231 231 227 217 205 197 194 194 190 185 183 183 180 177 176 175 173 176 188 197 195 199 216 219 217 217 220 223 235 257 250 239 241 245 247 256 275 309 353 18 30 34 33 31 29 27 25 22 18 13
217 216 215 216 219 220 221 222 221 220 224 229 233 235 237 242 245 244 241 236 230 226 226 228 227 221 209 197 190 187 188 191 193 194 191 186 182 184 185 182 181 186 197 202 201 209 224 220 217 219 222 213 212 261 265 244 236 244 248 249 260 287 316 346 17 31 36 35 32 31 30 25 22 18
216 217 217 217 219 222 221 219 219 224 231 235 235 235 238 243 246 242 236 230 226 224 224 223 218 209 199 191 188 187 186 191 200 205 201 194 191 195 195 189 188 193 200 200 201 212 228 220 215 218 223 219 215 244 260 241 236 246 250 247 252 268 287 307 341 11 29 34 30 30 30 26 22 22
217 218 218 215 216 222 223 219 221 226 229 231 234 235 237 240 240 238 232 226 223 222 220 216 211 205 199 198 199 198 197 201 207 209 206 202 200 201 201 197 194 196 202 205 201 204 214 216 216 222 232 239 245 257 263 256 258 264 259 250 250 260 273 291 319 347 6 18 22 23 24 23 20 19
217 219 218 213 215 223 225 223 225 227 227 230 235 236 236 235 236 234 230 224 220 217 214 210 204 200 200 204 206 204 203 204 205 205 206 205 204 208 211 206 199 202 210 213 205 205 214 222 228 237 248 257 264 269 267 261 267 275 268 256 252 256 265 279 299 324 340 352 2 8 12 14 15 15
212 215 216 213 214 219 221 222 225 227 229 232 234 234 233 234 232 230 226 220 213 207 203 200 198 200 204 206 203 198 197 199 200 202 202 202 204 210 212 204 200 204 208 201 194 200 214 226 236 244 253 261 258 253 250 251 266 282 280 263 252 252 257 266 276 290 309 324 338 357 7 6 1 5
208 209 211 212 215 219 222 224 226 226 227 230 231 231 230 229 225 220 215 207 199 195 194 194 196 200 202 201 200 199 196 193 193 195 199 203 207 206 202 198 196 194 187 178 179 187 197 206 217 228 246 259 248 241 247 260 276 291 295 279 262 256 255 258 261 268 279 292 306 331 0 358 341 348
198 198 197 200 207 214 217 221 223 223 223 223 224 224 223 218 211 201 192 188 189 191 190 187 187 191 193 193 193 195 193 190 189 191 194 200 201 194 190 188 183 173 168 171 175 181 191 201 209 222 244 269 262 253 261 276 289 300 303 297 284 272 265 261 260 261 266 272 279 289 308 330 323 333
183 185 185 187 192 198 204 210 215 217 216 213 212 213 211 202 190 181 179 183 186 186 185 184 184 187 188 186 188 195 199 198 193 186 177 175 174 171 168 165 162 162 166 171 176 187 202 216 229 240 258 289 303 287 284 294 305 311 310 307 303 293 280 269 262 259 259 262 266 269 273 283 297 306
170 172 172 172 175 177 181 187 192 196 197 194 191 187 182 177 173 171 173 177 178 177 182 190 193 191 189 189 194 199 197 185 173 165 159 156 155 154 154 155 157 160 165 175 192 212 230 248 260 269 282 299 313 317 314 313 316 320 320 316 311 305 295 280 267 260 257 257 256 255 255 256 262 269